Regional Weather Roundup
Issued by NWS

Home | Current Version | Previous Version | Text Only | Print | Product List | Glossary On
Versions: 1 2 3 4 5 6 7 8 9 10 11 12 13 14 15 16 17 18 19 20 21 22 23 24 25 26 27 28 29 30 31 32 33 34 35 36 37 38 39 40 41 42 43 44 45 46 47 48 49 50
000
ASUS43 KTOP 202259
RWRKS

WEATHER ROUNDUP FOR KANSAS
NATIONAL WEATHER SERVICE GOODLAND KS
500 PM CST FRI JAN 20 2017

NOTE:  "FAIR" INDICATES FEW OR NO CLOUDS BELOW 12,000 FEET WITH NO
SIGNIFICANT WEATHER AND/OR OBSTRUCTIONS TO VISIBILITY.

KSZ001>006-013>018-027>032-041>047-210000-
NORTHWEST KANSAS

CITY           SKY/WX    TMP DP  RH WIND       PRES   REMARKS
GOODLAND       CLOUDY    35  34  96 W8        29.39R
HAYS           CLOUDY    46  38  73 W9        29.40R
HILL CITY      CLOUDY    43  37  79 W6        29.40R
RUSSELL        CLOUDY    47  41  80 CALM      29.38R
$$

KSZ061>065-074>080-084>089-210000-
SOUTHWEST KANSAS

CITY           SKY/WX    TMP DP  RH WIND       PRES   REMARKS
DODGE CITY     CLOUDY    51  39  63 W7        29.39R
ELKHART          N/A     43  28  55 NW14        N/A
GARDEN CITY    CLOUDY    41  34  76 W15       29.41R
GREAT BEND     CLOUDY    48  42  80 SE6       29.40R
LIBERAL        CLEAR     46  34  61 NW15      29.43R
$$

KSZ066>073-081>083-090>101-210000-
SOUTHEAST KANSAS

CITY           SKY/WX    TMP DP  RH WIND       PRES   REMARKS
CHANUTE        CLEAR     59  43  55 SW13      29.44R
COFFEYVILLE    CLEAR     62  40  44 SW15G23   29.45R
HUTCHINSON     CLOUDY    49  44  83 S9        29.42R
NEWTON         CLOUDY    48  44  86 SW8       29.43R
PARSONS        CLEAR     61  40  45 SW13      29.45R
WICHITA INTL   CLOUDY    47  43  86 S15       29.44R
WICHITA JABRA  CLOUDY    47  42  83 S16       29.45R
WICHITA MCCONL CLOUDY    45  41  87 SW13      29.45R
WINFIELD       PTCLDY    46  41  82 SW8       29.48R
$$

KSZ007>012-019>026-033>040-048>060-102>105-210000-
NORTHEAST KANSAS

CITY           SKY/WX    TMP DP  RH WIND       PRES   REMARKS
CONCORDIA      CLOUDY    45  45 100 CALM      29.39F FOG
EMPORIA        CLOUDY    50  46  86 S7        29.43S
LAWRENCE       CLOUDY    50  49  96 SE6       29.44R FOG
MANHATTAN      CLOUDY    50  46  86 S3        29.41S
OLATHE IND     CLOUDY    51  48  89 S3        29.44S
OLATHE EXE     CLOUDY    51  48  89 S3        29.44R
SALINA         CLOUDY    48  46  93 S9        29.42R
TOPEKA BILLARD CLOUDY    50  47  89 E3        29.43S FOG
TOPEKA FORBES  CLOUDY    51  48  89 S7        29.43R FOG
$$



USA.gov is the U.S. government's official web portal to all federal, state and local government web resources and services.